Weather in Inkerman

Russia / Republic of Crimea     44°36′52″N   33°36′31″E
temp.,
°C
wind,
m/s
gust,
m/s
humid.,
%
clouds,
%
prec.,
mm/h
press.,
hPa
HPBL,
m
3 march, wed
wed300:00+5w677369 0.0 1025792
03:00+6w9108167 0.0 1024848
06:00+7nnw91085100 0.2 1023678
09:00+5n10127597 0.2 10261121
12:00+6n786678 0.0 10271164
15:00+7nnw786444 0.0 10271083
18:00+7nnw77680 0.0 1028880
21:00+6nnw566928 0.0 1029591
4 march, thu
thu400:00+6n336867 0.0 1029416
03:00+5nne127035 0.0 1028206
06:00+5n11680 0.0 1027207
09:00+6sw23620 0.0 1026668
12:00+7sw45610 0.0 1025874
15:00+7ssw66650 0.0 1023803
18:00+7ssw67690 0.0 1021774
21:00+6s79740 0.0 1020658
5 march, fri
fri500:00+6s78740 0.0 1019629
03:00+6s79780 0.0 1018580
06:00+7s68770 0.0 1017517
09:00+7sse79760 0.0 1016514
12:00+9s811730 0.0 1015587
15:00+9s89780 0.0 1014515
18:00+9s710830 0.0 1013511
21:00+9s688810 0.0 1014477
6 march, sat
sat600:00+9s568914 0.0 1014228
03:00+9sse23908 0.0 101435
06:00+9se228871 0.0 101534
09:00+9nnw228586 0.0 101684
12:00+8n101184100 0.0 1017485
15:00+5n111289100 0.1 1018563
18:00+3nne101490100 0.8 1020787
21:00+4nne81060100 0.8 10241094
7 march, sun
sun700:00+4n8105791 0.0 10261264
03:00+2nne796357 0.0 10271008
06:00+1ne57521 0.0 1028905
09:00+2ene22401 0.0 1029480
12:00+3w234841 0.0 10291251
15:00+3wnw445368 0.1 10271406
18:00+3wnw444884 0.0 10251469
21:00+3wnw344942 0.0 1025875